User: anonymous   Login
Location: Unspecified
(0.0000°N, 0.0000°E)
Time: 04:00:53
(UTC+02:00)
Language:

GPS 2-12 Rocket1 - Orbit

View from above orbital plane
View from above orbital plane
View from above satellite
View from above satellite

Ground track
Ground track

The orbit data is extracted from the following two-line orbital elements,

1 21891U 92009B   16267.19193842 +.00000860 +00000-0 +54229-4 0  9990
2 21891 019.9962 259.3649 0047426 025.3230 334.9502 14.82726792305669
Epoch (UTC): 23 September 2016 04:36:23
Eccentricity: 0.0047426
inclination: 19.9962°
perigee height: 587 km
apogee height: 654 km
right ascension of ascending node: 259.3649°
argument of perigee: 25.3230°
revolutions per day: 14.82726792
mean anomaly at epoch: 334.9502°
orbit number at epoch: 30566

The dashed part of the orbit path shows where the satellite is in the earth's shadow,  

DLR